When you browse on this site, cookies collect data to enhance your experience and personalize the content and advertising you see.
Visit our Privacy Policy to learn more. By continuing to use the site, you agree to this use of cookies and data.
  • Em Portugal
  • Lista de países
  • Para 7 dias
  • Temperatura da água
  • Mapas de satélite
  • Mapa do tempo
  • Widgets de tempo
  • user-avatar
    Iniciar Sessão

    Previsão horária em Podbor

    Hoje, 20 Janeiro, Domingo

    Tempo Temperatura Precipitação Vento Pressão Humidade
    00:00 -5°C° 0 mm 2 m/s 746 mmHg 84%
    01:00 -4°C° 0 mm 1 m/s 746 mmHg 88%
    02:00 -4°C° 0 mm 1 m/s 745 mmHg 89%
    03:00 -4°C° 0 mm 1 m/s 745 mmHg 89%
    04:00 -4°C° 0 mm 1 m/s 745 mmHg 90%
    05:00 -4°C° 0 mm 1 m/s 745 mmHg 91%
    06:00 -4°C° 0 mm 1 m/s 744 mmHg 91%
    07:00 -4°C° 0 mm 1 m/s 744 mmHg 91%
    08:00 -4°C° 0 mm 1 m/s 744 mmHg 89%
    09:00 -3°C° 0 mm 1 m/s 744 mmHg 87%
    10:00 -3°C° 0 mm 1 m/s 744 mmHg 84%
    11:00 -2°C° 0 mm 1 m/s 744 mmHg 83%
    12:00 -2°C° 0 mm 1 m/s 744 mmHg 81%
    13:00 -1°C° 0 mm 1 m/s 743 mmHg 79%
    14:00 -2°C° 0 mm 1 m/s 743 mmHg 82%
    15:00 -2°C° 0 mm 1 m/s 743 mmHg 85%
    16:00 -2°C° 0 mm 1 m/s 743 mmHg 88%
    17:00 -3°C° 0 mm 1 m/s 744 mmHg 90%
    18:00 -3°C° 0 mm 1 m/s 744 mmHg 91%
    19:00 -4°C° 0 mm 1 m/s 744 mmHg 92%
    20:00 -4°C° 0 mm 1 m/s 744 mmHg 92%
    21:00 -4°C° 0 mm 1 m/s 745 mmHg 91%
    22:00 -4°C° 0 mm 1 m/s 745 mmHg 91%
    23:00 -6°C° 0 mm 1 m/s 745 mmHg 90%

    Amanhã, 21 Janeiro, Segunda-feira

    Tempo Temperatura Precipitação Vento Pressão Humidade
    00:00 -6°C° 0 mm 1 m/s 746 mmHg 90%
    01:00 -6°C° 0 mm 1 m/s 746 mmHg 89%
    02:00 -6°C° 0 mm 1 m/s 746 mmHg 89%
    03:00 -6°C° 0 mm 1 m/s 746 mmHg 89%
    04:00 -6°C° 0 mm 1 m/s 746 mmHg 89%
    05:00 -7°C° 0 mm 2 m/s 747 mmHg 89%
    06:00 -7°C° 0 mm 2 m/s 747 mmHg 89%
    07:00 -7°C° 0 mm 2 m/s 747 mmHg 89%
    08:00 -7°C° 0 mm 2 m/s 747 mmHg 86%
    09:00 -6°C° 0 mm 2 m/s 748 mmHg 84%
    10:00 -5°C° 0 mm 2 m/s 748 mmHg 81%
    11:00 -2°C° 0 mm 1 m/s 748 mmHg 79%
    12:00 -2°C° 0 mm 1 m/s 748 mmHg 78%
    13:00 -1°C° 0 mm 1 m/s 747 mmHg 76%
    14:00 -1°C° 0 mm 1 m/s 747 mmHg 79%
    15:00 -2°C° 0 mm 1 m/s 747 mmHg 82%
    16:00 -4°C° 0 mm 0 m/s 747 mmHg 85%
    17:00 -3°C° 0 mm 1 m/s 747 mmHg 86%
    18:00 -3°C° 0 mm 1 m/s 747 mmHg 86%
    19:00 -4°C° 0 mm 1 m/s 747 mmHg 87%
    20:00 -4°C° 0 mm 1 m/s 747 mmHg 88%
    21:00 -4°C° 0 mm 1 m/s 747 mmHg 88%
    22:00 -4°C° 0 mm 1 m/s 747 mmHg 89%
    23:00 -4°C° 0 mm 1 m/s 747 mmHg 89%

    Depois de amanhã, 22 Janeiro, Terça-feira

    Tempo Temperatura Precipitação Vento Pressão Humidade
    00:00 -4°C° 0 mm 1 m/s 746 mmHg 89%
    01:00 -6°C° 0 mm 1 m/s 746 mmHg 89%
    02:00 -6°C° 0 mm 1 m/s 746 mmHg 89%
    03:00 -6°C° 0 mm 1 m/s 745 mmHg 89%
    04:00 -6°C° 0 mm 1 m/s 745 mmHg 88%
    05:00 -6°C° 0 mm 1 m/s 745 mmHg 88%
    06:00 -6°C° 0 mm 1 m/s 744 mmHg 87%
    07:00 -7°C° 0 mm 1 m/s 744 mmHg 86%
    08:00 -6°C° 0 mm 1 m/s 744 mmHg 83%
    09:00 -6°C° 0 mm 2 m/s 744 mmHg 81%
    10:00 -5°C° 0 mm 2 m/s 744 mmHg 78%
    11:00 -4°C° 0 mm 2 m/s 743 mmHg 76%
    12:00 -1°C° 0 mm 1 m/s 743 mmHg 75%
    13:00 -1°C° 0 mm 1 m/s 742 mmHg 73%
    14:00 -1°C° 0 mm 1 m/s 742 mmHg 77%
    15:00 -4°C° 0 mm 2 m/s 741 mmHg 82%
    16:00 -4°C° 0 mm 2 m/s 741 mmHg 86%
    17:00 -5°C° 0 mm 2 m/s 741 mmHg 87%
    18:00 -5°C° 0 mm 2 m/s 740 mmHg 88%
    19:00 -6°C° 0 mm 2 m/s 740 mmHg 90%
    20:00 -6°C° 0 mm 2 m/s 740 mmHg 90%
    21:00 -7°C° 0 mm 3 m/s 740 mmHg 91%
    22:00 -7°C° 0 mm 3 m/s 739 mmHg 92%
    23:00 -8°C° 0 mm 3 m/s 739 mmHg 93%

    23 Janeiro, Quarta-feira

    Tempo Temperatura Precipitação Vento Pressão Humidade
    00:00 -9°C° 0 mm 4 m/s 738 mmHg 93%
    01:00 -9°C° 0 mm 4 m/s 738 mmHg 94%
    02:00 -9°C° 0 mm 4 m/s 738 mmHg 93%
    03:00 -9°C° 0 mm 4 m/s 737 mmHg 93%
    04:00 -10°C° 0 mm 5 m/s 737 mmHg 92%
    05:00 -10°C° 0 mm 5 m/s 736 mmHg 92%
    06:00 -10°C° 0 mm 5 m/s 736 mmHg 92%
    07:00 -8°C° 0 mm 5 m/s 736 mmHg 91%
    08:00 -7°C° 0 mm 5 m/s 736 mmHg 90%
    09:00 -6°C° 0 mm 5 m/s 736 mmHg 88%
    10:00 -5°C° 0 mm 5 m/s 736 mmHg 87%
    11:00 -4°C° 0 mm 5 m/s 735 mmHg 86%
    12:00 -4°C° 0 mm 5 m/s 735 mmHg 86%
    13:00 -2°C° 0 mm 5 m/s 735 mmHg 85%
    14:00 -2°C° 0 mm 5 m/s 735 mmHg 87%
    15:00 -2°C° 0 mm 5 m/s 735 mmHg 90%
    16:00 -2°C° 0 mm 4 m/s 734 mmHg 92%
    17:00 -3°C° 0 mm 4 m/s 735 mmHg 92%
    18:00 -3°C° 0 mm 4 m/s 735 mmHg 93%
    19:00 -3°C° 0 mm 4 m/s 735 mmHg 94%
    20:00 -2°C° 0 mm 3 m/s 735 mmHg 95%
    21:00 -2°C° 0 mm 3 m/s 735 mmHg 95%
    22:00 -2°C° 0 mm 3 m/s 735 mmHg 95%
    23:00 -2°C° 0 mm 2 m/s 735 mmHg 96%

    24 Janeiro, Quinta-feira

    Tempo Temperatura Precipitação Vento Pressão Humidade
    00:00 -2°C° 0 mm 2 m/s 735 mmHg 96%
    01:00 -2°C° 0 mm 2 m/s 735 mmHg 96%
    02:00 -2°C° 0.1 mm 2 m/s 735 mmHg 97%
    03:00 0°C° 0.1 mm 1 m/s 735 mmHg 97%
    04:00 +1°C° 0.1 mm 1 m/s 735 mmHg 97%
    05:00 0°C° 0.1 mm 1 m/s 735 mmHg 97%
    06:00 0°C° 0.1 mm 1 m/s 735 mmHg 97%
    07:00 0°C° 0.1 mm 1 m/s 735 mmHg 97%
    08:00 +1°C° 0 mm 1 m/s 735 mmHg 97%
    09:00 0°C° 0 mm 0 m/s 736 mmHg 97%
    10:00 0°C° 0 mm 0 m/s 736 mmHg 96%
    11:00 +1°C° 0 mm 0 m/s 736 mmHg 96%
    12:00 +2°C° 0 mm 1 m/s 736 mmHg 96%
    13:00 +2°C° 0 mm 1 m/s 736 mmHg 96%
    14:00 +2°C° 0 mm 1 m/s 736 mmHg 97%
    15:00 +2°C° 0 mm 1 m/s 736 mmHg 97%
    16:00 +1°C° 0 mm 1 m/s 736 mmHg 98%
    17:00 +1°C° 0.1 mm 1 m/s 736 mmHg 98%
    18:00 +1°C° 0.1 mm 1 m/s 736 mmHg 98%
    19:00 +1°C° 0.1 mm 1 m/s 737 mmHg 98%
    20:00 -1°C° 0 mm 2 m/s 737 mmHg 97%
    21:00 -1°C° 0 mm 2 m/s 737 mmHg 97%
    22:00 -1°C° 0 mm 2 m/s 737 mmHg 97%
    23:00 -1°C° 0 mm 2 m/s 737 mmHg 96%

    25 Janeiro, Sexta-feira

    Tempo Temperatura Precipitação Vento Pressão Humidade
    00:00 -1°C° 0 mm 3 m/s 737 mmHg 96%
    01:00 -1°C° 0 mm 3 m/s 737 mmHg 96%
    02:00 -2°C° 0.1 mm 3 m/s 737 mmHg 95%
    03:00 -2°C° 0.1 mm 3 m/s 737 mmHg 95%
    04:00 -2°C° 0.1 mm 3 m/s 738 mmHg 95%
    05:00 -2°C° 0.1 mm 3 m/s 738 mmHg 95%
    06:00 -2°C° 0.1 mm 3 m/s 738 mmHg 94%
    07:00 -2°C° 0.1 mm 3 m/s 738 mmHg 94%
    08:00 -3°C° 0.1 mm 4 m/s 738 mmHg 94%
    09:00 -3°C° 0.1 mm 4 m/s 739 mmHg 93%
    10:00 -3°C° 0.1 mm 4 m/s 739 mmHg 92%
    11:00 -2°C° 0.1 mm 4 m/s 739 mmHg 92%
    12:00 -2°C° 0.1 mm 4 m/s 740 mmHg 91%
    13:00 -2°C° 0.1 mm 4 m/s 740 mmHg 91%
    14:00 -2°C° 0.1 mm 4 m/s 740 mmHg 91%
    15:00 -3°C° 0.1 mm 4 m/s 740 mmHg 91%
    16:00 -3°C° 0.1 mm 4 m/s 741 mmHg 91%
    17:00 -3°C° 0.2 mm 4 m/s 741 mmHg 91%
    18:00 -4°C° 0.2 mm 5 m/s 742 mmHg 91%
    19:00 -4°C° 0.2 mm 5 m/s 742 mmHg 91%
    20:00 -5°C° 0.2 mm 5 m/s 742 mmHg 90%
    21:00 -5°C° 0.2 mm 5 m/s 743 mmHg 89%
    22:00 -5°C° 0.2 mm 5 m/s 743 mmHg 89%
    23:00 -5°C° 0.1 mm 5 m/s 743 mmHg 87%
    Mostrar mais